Temp
-6 -7 -7 -7 -7 -7 -6 -6 -6 -7 -7 -6 -6 -6 -7 -6 -7 -7 -7 -7 -8 -8 -8 -8 -8 -9 -9 -9 -9 -9 -9 -9 -10 -10 -10 -10 -10 -10 -10 -10 -10 -9 -9
-6 -6 -6 -6 -6 -7 -6 -6 -6 -6 -6 -6 -6 -6 -6 -6 -7 -7 -7 -7 -7 -7 -8 -8 -8 -8 -9 -9 -9 -9 -9 -10 -10 -10 -10 -10 -10 -10 -10 -10 -10 -9 -9
-6 -6 -6 -6 -6 -6 -6 -6 -6 -6 -6 -6 -6 -7 -7 -7 -7 -7 -7 -7 -7 -8 -8 -8 -8 -8 -8 -9 -9 -9 -9 -9 -9 -9 -10 -10 -9 -9 -9 -10 -10 -9 -9
-6 -6 -6 -6 -6 -6 -6 -6 -6 -6 -6 -6 -6 -7 -7 -7 -7 -7 -7 -7 -7 -7 -8 -8 -8 -8 -8 -8 -8 -9 -9 -9 -9 -9 -9 -9 -9 -9 -9 -9 -9 -9 -9
-6 -6 -6 -6 -6 -6 -7 -6 -6 -6 -6 -6 -6 -6 -6 -7 -7 -7 -7 -7 -7 -7 -8 -8 -8 -9 -8 -8 -8 -9 -9 -9 -9 -9 -9 -8 -9 -9 -9 -8 -9 -9 -9
-6 -6 -6 -6 -6 -6 -6 -6 -6 -6 -6 -6 -6 -6 -6 -6 -6 -7 -7 -7 -7 -7 -7 -7 -7 -8 -8 -8 -8 -9 -9 -9 -9 -9 -9 -8 -8 -8 -8 -8 -8 -8 -9
-6 -6 -6 -6 -6 -6 -6 -6 -6 -6 -6 -6 -6 -6 -7 -7 -6 -6 -7 -7 -7 -7 -7 -7 -7 -7 -8 -8 -8 -8 -9 -8 -8 -9 -8 -8 -8 -8 -8 -8 -8 -8 -8
-6 -6 -6 -6 -6 -6 -6 -6 -6 -6 -6 -6 -6 -6 -6 -7 -7 -7 -6 -7 -7 -7 -7 -8 -8 -8 -8 -8 -8 -8 -8 -8 -8 -8 -8 -8 -8 -8 -8 -8 -8 -8 -8
-7 -7 -6 -6 -6 -6 -6 -6 -6 -6 -6 -6 -6 -7 -7 -7 -7 -7 -7 -7 -7 -7 -7 -7 -7 -7 -7 -8 -8 -8 -8 -8 -8 -8 -8 -8 -8 -8 -8 -8 -8 -8 -8
-6 -7 -7 -7 -6 -6 -6 -6 -6 -6 -5 -6 -6 -6 -6 -6 -7 -7 -6 -7 -7 -7 -7 -7 -7 -7 -7 -7 -7 -7 -8 -8 -8 -7 -7 -7 -7 -7 -8 -8 -8 -8 -7
-6 -7 -7 -6 -6 -6 -6 -6 -6 -6 -6 -6 -6 -6 -6 -7 -6 -6 -6 -6 -7 -7 -7 -7 -7 -7 -8 -8 -8 -7 -8 -8 -7 -7 -7 -7 -7 -7 -7 -7 -7 -7 -7
-7 -7 -7 -7 -7 -7 -6 -6 -6 -6 -6 -6 -6 -6 -6 -6 -6 -6 -6 -6 -7 -6 -6 -7 -7 -7 -7 -8 -7 -7 -7 -7 -7 -6 -7 -7 -7 -7 -7 -7 -7 -7 -7
-7 -7 -6 -6 -7 -7 -6 -6 -6 -6 -6 -6 -6 -6 -6 -6 -6 -6 -6 -6 -6 -6 -6 -7 -7 -7 -6 -7 -7 -7 -7 -6 -6 -6 -7 -7 -7 -7 -7 -7 -7 -7 -7
-6 -6 -6 -6 -6 -7 -7 -6 -6 -6 -6 -6 -6 -6 -6 -6 -6 -6 -6 -6 -6 -6 -7 -6 -7 -7 -6 -6 -6 -6 -7 -6 -7 -7 -7 -7 -7 -7 -6 -7 -7 -7 -7
-6 -6 -7 -7 -7 -7 -7 -7 -7 -7 -7 -7 -6 -6 -6 -6 -6 -6 -6 -7 -7 -6 -6 -6 -6 -6 -6 -6 -7 -6 -7 -7 -7 -7 -7 -7 -7 -7 -7 -7 -7 -7 -7
-7 -7 -7 -7 -7 -7 -7 -7 -7 -7 -7 -7 -7 -7 -6 -6 -6 -6 -6 -6 -6 -7 -6 -6 -6 -6 -6 -6 -6 -6 -6 -6 -5 -7 -7 -7 -7 -7 -7 -8 -8 -8 -8
-7 -7 -7 -7 -7 -7 -7 -8 -7 -7 -7 -7 -7 -7 -7 -7 -6 -6 -6 -6 -6 -7 -6 -6 -6 -6 -6 -6 -6 -6 -6 -5 -6 -6 -7 -7 -7 -7 -7 -7 -7 -8 -8
-7 -7 -8 -8 -7 -8 -7 -7 -7 -7 -7 -7 -7 -7 -7 -7 -6 -6 -6 -6 -6 -7 -7 -6 -6 -6 -6 -6 -6 -6 -6 -6 -6 -6 -6 -7 -7 -7 -7 -7 -7 -8 -7
-7 -7 -7 -8 -8 -8 -7 -7 -7 -8 -7 -7 -7 -7 -7 -7 -7 -6 -6 -6 -7 -6 -6 -6 -6 -6 -6 -6 -6 -6 -6 -6 -6 -7 -7 -6 -6 -7 -7 -7 -7 -7 -7
-7 -7 -7 -7 -7 -8 -7 -7 -7 -8 -7 -7 -7 -7 -7 -7 -7 -7 -7 -7 -7 -7 -7 -6 -7 -7 -6 -6 -6 -6 -6 -6 -6 -6 -6 -6 -6 -6 -7 -7 -7 -7 -7
-7 -7 -7 -8 -7 -7 -7 -7 -7 -7 -7 -7 -7 -7 -7 -7 -7 -7 -7 -7 -7 -7 -6 -6 -6 -6 -6 -6 -7 -6 -6 -6 -6 -6 -6 -6 -6 -6 -6 -6 -6 -7 -7
-7 -7 -7 -8 -8 -8 -7 -7 -7 -7 -7 -7 -7 -7 -7 -7 -7 -7 -7 -7 -7 -6 -6 -6 -6 -6 -6 -7 -7 -7 -7 -7 -6 -6 -6 -6 -6 -6 -6 -6 -6 -6 -7
-8 -8 -8 -8 -8 -8 -8 -8 -8 -7 -7 -7 -7 -7 -7 -7 -7 -7 -7 -7 -7 -7 -6 -6 -7 -7 -7 -7 -7 -7 -7 -7 -7 -6 -6 -7 -6 -6 -5 -5 -6 -6 -6
-8 -8 -8 -8 -7 -7 -8 -7 -7 -7 -7 -7 -7 -7 -7 -8 -7 -7 -7 -7 -7 -7 -7 -7 -7 -7 -7 -7 -7 -7 -6 -6 -6 -6 -5 -6 -6 -6 -5 -5 -5 -5 -5
-8 -8 -8 -8 -8 -8 -8 -7 -7 -7 -7 -7 -7 -7 -7 -7 -7 -7 -7 -7 -7 -7 -7 -7 -7 -7 -7 -7 -7 -7 -7 -7 -6 -6 -5 -5 -5 -5 -5 -4 -4 -5 -5
-8 -8 -8 -8 -8 -9 -8 -8 -8 -8 -8 -8 -7 -7 -7 -7 -7 -7 -7 -7 -7 -7 -7 -7 -7 -7 -7 -7 -7 -7 -7 -7 -6 -6 -6 -5 -5 -5 -5 -4 -4 -4 -4
Height
5919 5919 5919 5920 5919 5918 5918 5918 5918 5918 5919 5918 5919 5918 5919 5919 5919 5919 5919 5919 5920 5922 5922 5922 5924 5925 5925 5925 5925 5926 5926 5925 5926 5926 5925 5925 5925 5926 5925 5924 5924 5925 5926
5920 5919 5919 5920 5919 5917 5918 5919 5919 5919 5918 5918 5918 5919 5919 5919 5920 5919 5919 5919 5920 5921 5922 5923 5923 5924 5925 5925 5925 5924 5925 5925 5925 5925 5922 5922 5923 5924 5924 5924 5924 5924 5925
5920 5920 5919 5919 5919 5917 5918 5918 5918 5919 5918 5917 5918 5918 5919 5919 5919 5919 5920 5920 5921 5922 5923 5923 5923 5923 5924 5924 5924 5923 5923 5923 5923 5923 5923 5922 5923 5924 5923 5922 5923 5923 5923
5920 5920 5920 5919 5919 5919 5919 5919 5918 5918 5918 5917 5917 5918 5918 5918 5919 5919 5920 5920 5921 5921 5922 5922 5922 5923 5923 5923 5923 5922 5922 5922 5922 5922 5922 5921 5922 5922 5922 5922 5921 5921 5921
5919 5920 5919 5920 5920 5920 5919 5919 5918 5918 5917 5917 5917 5918 5918 5918 5918 5918 5919 5920 5920 5920 5921 5921 5921 5921 5922 5921 5921 5921 5921 5920 5920 5920 5921 5920 5921 5922 5921 5921 5921 5920 5920
5918 5919 5919 5919 5919 5919 5919 5919 5919 5918 5917 5917 5917 5917 5917 5917 5917 5918 5918 5918 5918 5919 5920 5920 5920 5919 5919 5919 5919 5919 5919 5919 5918 5919 5920 5920 5919 5921 5921 5920 5920 5920 5919
5917 5917 5918 5918 5918 5918 5918 5918 5918 5919 5918 5917 5917 5917 5917 5916 5916 5916 5917 5917 5917 5918 5918 5918 5918 5917 5916 5916 5917 5917 5917 5917 5917 5918 5918 5919 5919 5920 5920 5919 5919 5920 5919
5916 5916 5917 5917 5917 5917 5917 5918 5918 5918 5919 5918 5917 5916 5916 5916 5915 5915 5915 5915 5916 5916 5916 5916 5916 5915 5915 5915 5915 5916 5916 5916 5917 5916 5917 5917 5918 5919 5918 5918 5918 5919 5920
5912 5913 5914 5915 5915 5916 5916 5916 5917 5917 5918 5918 5917 5916 5915 5915 5915 5914 5913 5913 5914 5913 5914 5913 5913 5914 5913 5913 5914 5914 5915 5915 5915 5915 5916 5916 5916 5916 5916 5917 5917 5917 5918
5908 5909 5910 5911 5912 5913 5913 5914 5914 5915 5915 5916 5916 5915 5914 5914 5913 5912 5911 5911 5912 5911 5911 5911 5911 5911 5911 5911 5912 5913 5913 5913 5913 5913 5913 5914 5915 5915 5915 5915 5915 5915 5916
5903 5905 5906 5906 5907 5909 5910 5911 5912 5912 5912 5914 5914 5914 5913 5912 5912 5911 5909 5909 5908 5907 5907 5907 5908 5908 5908 5909 5909 5909 5910 5910 5910 5911 5911 5912 5913 5913 5913 5914 5914 5914 5914
5900 5901 5902 5902 5903 5904 5906 5908 5908 5909 5910 5911 5912 5912 5911 5910 5910 5909 5908 5907 5905 5906 5905 5906 5905 5905 5905 5904 5905 5905 5906 5908 5908 5909 5910 5910 5911 5911 5912 5912 5912 5912 5913
5895 5896 5897 5897 5898 5900 5903 5904 5906 5907 5908 5909 5910 5910 5909 5908 5909 5908 5906 5906 5905 5905 5905 5904 5903 5903 5903 5902 5900 5900 5902 5904 5905 5907 5907 5908 5909 5910 5909 5908 5908 5909 5910
5891 5891 5891 5891 5894 5896 5899 5901 5902 5903 5904 5905 5907 5907 5907 5907 5907 5907 5904 5904 5904 5904 5903 5902 5901 5901 5900 5899 5896 5893 5897 5899 5901 5903 5904 5905 5906 5906 5906 5906 5906 5906 5907
5886 5887 5887 5889 5890 5892 5894 5897 5897 5898 5899 5901 5902 5903 5904 5905 5905 5905 5903 5903 5903 5903 5901 5899 5899 5899 5899 5898 5896 5893 5894 5895 5898 5900 5901 5902 5902 5902 5902 5902 5901 5901 5901
5882 5883 5884 5885 5886 5888 5889 5892 5892 5894 5896 5898 5899 5901 5902 5902 5902 5903 5901 5901 5901 5901 5900 5899 5898 5898 5897 5896 5895 5893 5891 5891 5894 5896 5897 5898 5898 5896 5897 5896 5895 5896 5896
5877 5878 5879 5880 5881 5884 5885 5887 5889 5891 5893 5894 5895 5898 5899 5900 5899 5900 5899 5899 5899 5899 5899 5899 5897 5896 5897 5896 5894 5893 5893 5893 5893 5894 5894 5894 5893 5893 5892 5891 5890 5890 5888
5872 5873 5875 5875 5874 5877 5880 5883 5885 5887 5888 5889 5890 5893 5895 5896 5896 5896 5897 5897 5897 5898 5897 5896 5896 5895 5895 5894 5893 5893 5892 5892 5892 5891 5891 5890 5889 5888 5888 5887 5886 5885 5885
5866 5868 5868 5870 5871 5872 5875 5878 5880 5882 5883 5884 5886 5888 5890 5891 5893 5892 5892 5893 5893 5894 5894 5893 5893 5893 5892 5892 5891 5891 5890 5890 5890 5889 5888 5886 5885 5884 5883 5881 5881 5881 5880
5860 5862 5863 5864 5865 5866 5869 5870 5873 5876 5877 5879 5880 5882 5884 5885 5887 5888 5888 5888 5889 5890 5890 5890 5890 5889 5888 5888 5887 5886 5886 5886 5885 5885 5883 5882 5880 5878 5877 5877 5876 5875 5875
5856 5856 5855 5858 5860 5861 5862 5863 5865 5866 5870 5872 5874 5875 5877 5878 5882 5883 5883 5884 5885 5885 5885 5886 5886 5886 5886 5884 5883 5882 5881 5881 5880 5880 5878 5877 5875 5874 5873 5872 5870 5869 5868
5851 5851 5849 5851 5852 5855 5858 5857 5858 5859 5862 5864 5866 5867 5869 5871 5874 5876 5877 5879 5880 5881 5881 5882 5882 5882 5882 5882 5881 5880 5878 5876 5875 5875 5873 5871 5870 5868 5866 5864 5863 5862 5861
5847 5845 5843 5843 5844 5845 5847 5848 5850 5853 5856 5858 5859 5860 5862 5865 5867 5869 5872 5873 5875 5876 5876 5877 5877 5877 5877 5877 5876 5875 5874 5872 5870 5870 5870 5865 5863 5861 5858 5856 5854 5852 5851
5839 5839 5837 5837 5838 5836 5838 5835 5840 5842 5844 5846 5849 5851 5854 5857 5860 5862 5865 5866 5867 5868 5870 5871 5872 5872 5872 5871 5870 5869 5868 5867 5864 5863 5864 5862 5857 5855 5852 5849 5847 5845 5843
5830 5830 5830 5829 5830 5829 5829 5832 5833 5836 5835 5835 5839 5842 5845 5850 5853 5855 5857 5859 5860 5862 5863 5865 5866 5866 5866 5865 5864 5863 5861 5860 5858 5855 5856 5855 5852 5849 5845 5843 5841 5839 5837
5824 5824 5823 5822 5821 5821 5821 5823 5825 5825 5826 5830 5832 5834 5837 5841 5843 5843 5848 5850 5852 5854 5855 5857 5859 5859 5858 5857 5856 5855 5853 5851 5851 5849 5849 5847 5845 5842 5838 5837 5837 5834 5831
Wind_Speed
4 7 6 6 5 2 2 2 2 2 1 1 2 2 1 1 1 1 1 0 2 4 3 3 3 3 5 4 3 3 3 4 5 6 8 7 4 4 4 4 7 9 10
3 4 5 7 8 5 4 5 4 3 2 1 1 2 1 2 2 3 1 1 1 3 4 5 5 6 6 5 5 5 5 7 7 8 11 8 3 4 4 5 7 9 10
1 2 2 4 8 14 4 6 3 2 3 1 1 2 2 3 4 5 5 3 3 3 4 6 7 7 6 6 7 7 7 8 8 8 8 7 6 6 6 4 6 9 12
2 1 1 3 4 5 7 2 1 1 1 1 2 1 1 2 3 5 5 4 4 4 5 5 6 7 7 8 9 9 8 7 8 7 6 5 6 6 6 5 5 7 11
4 2 0 3 3 2 5 5 4 1 2 1 2 1 1 2 2 4 5 5 6 6 7 7 6 7 8 9 9 10 10 8 6 6 6 4 5 6 6 5 6 7 7
5 6 4 3 1 0 3 3 3 3 2 2 3 1 3 3 2 4 5 6 7 7 8 8 9 9 9 10 9 9 9 8 6 6 6 5 6 6 5 5 5 6 6
8 8 7 6 4 3 3 0 1 2 2 2 1 1 3 5 4 3 4 6 7 7 8 9 9 8 8 9 10 10 10 8 8 8 7 8 9 9 6 5 4 6 7
12 11 11 9 9 7 6 4 3 2 5 3 3 2 4 4 6 7 7 7 6 7 8 9 10 10 9 9 9 10 10 9 10 10 10 11 10 10 8 7 6 6 7
14 16 13 12 12 11 9 7 6 5 7 5 6 5 6 7 7 7 10 11 10 10 10 10 10 11 10 11 11 10 10 10 9 9 10 10 10 10 8 8 7 6 6
16 16 16 16 15 15 14 11 10 11 7 7 7 5 6 7 9 10 10 10 13 14 13 13 11 11 12 13 13 11 10 12 11 10 10 10 9 9 9 8 8 7 6
14 18 19 22 19 19 17 17 14 13 9 8 9 9 8 7 9 9 8 13 11 11 11 14 13 16 15 15 15 15 13 15 13 12 11 11 11 9 9 9 8 8 8
13 15 17 20 20 22 22 19 17 15 11 9 11 11 9 8 9 7 9 13 7 13 10 9 7 14 17 21 20 19 15 15 14 13 13 12 13 11 10 9 9 9 10
16 17 18 23 24 24 23 21 20 18 13 12 12 12 11 10 10 7 9 8 3 5 6 9 8 9 10 13 13 18 18 15 15 14 14 13 14 14 13 12 13 12 13
18 13 14 18 25 26 25 24 22 18 15 14 14 14 13 10 11 8 8 9 7 5 8 12 11 9 10 9 17 14 20 17 16 14 14 15 16 17 17 16 16 17 18
21 16 12 16 23 24 24 23 24 22 18 17 16 15 14 13 12 11 8 6 4 5 6 4 4 3 3 8 11 5 17 22 16 13 13 15 16 19 19 20 22 20 20
21 19 20 17 21 26 25 25 27 25 21 20 19 17 15 13 12 13 14 7 7 6 6 4 1 3 5 6 9 11 10 11 12 14 14 14 15 13 18 20 23 27 27
22 22 21 20 21 25 26 27 28 25 23 22 20 18 16 15 15 13 11 10 10 8 7 7 7 6 8 9 10 9 5 7 8 10 12 13 13 15 14 14 10 13 19
23 24 23 22 23 25 26 29 27 26 24 25 24 19 19 17 19 16 16 15 12 11 10 9 10 10 10 10 9 8 8 9 10 10 12 14 16 16 17 17 16 15 15
24 25 23 22 21 24 23 27 27 26 26 24 24 24 21 21 21 19 20 18 15 14 12 10 12 12 11 11 10 10 11 9 10 11 12 15 17 18 18 18 18 17 18
27 27 26 25 25 28 26 29 29 26 27 26 24 23 23 21 15 18 19 18 17 19 15 12 12 12 13 14 14 15 13 13 12 12 15 17 19 20 21 21 20 21 21
29 27 29 27 28 31 29 29 30 30 29 27 26 26 25 24 21 19 20 18 15 12 16 15 13 14 15 16 16 17 18 16 14 16 19 18 19 20 23 25 26 26 25
25 26 27 28 29 32 32 33 31 30 29 28 27 28 25 21 21 19 13 19 19 17 17 16 16 17 17 16 16 18 19 19 20 17 21 21 21 23 25 27 27 26 26
33 31 30 33 33 36 34 34 35 33 33 31 30 31 27 24 23 21 20 20 20 19 18 19 18 19 18 17 17 17 18 20 24 22 19 24 25 25 26 26 25 25 25
35 36 31 33 37 29 36 30 38 37 38 39 31 26 25 25 25 24 22 22 22 21 21 21 19 19 18 18 18 20 20 20 23 23 18 22 26 26 25 25 25 26 27
34 34 35 33 34 32 31 35 38 39 44 43 31 36 28 27 28 27 25 25 24 22 22 22 20 19 18 20 21 23 24 24 25 27 22 22 24 26 23 25 27 26 26
37 34 33 35 33 36 43 33 39 36 34 39 36 35 29 30 33 35 29 28 27 25 22 21 21 20 21 22 24 27 29 30 28 28 25 23 24 25 23 22 25 26 25
Wind_Direction
59 30 57 37 0 349 236 138 103 108 220 255 155 146 145 136 140 48 76 238 246 247 234 212 224 234 242 233 244 250 261 283 299 316 304 289 288 289 270 240 222 214 205
84 51 34 23 19 347 194 169 151 115 124 213 188 181 199 242 202 231 225 213 233 258 257 252 245 235 246 253 247 242 254 263 277 285 291 312 281 303 287 269 239 220 213
140 82 55 31 35 42 111 111 111 113 109 151 172 208 201 225 240 245 232 234 239 269 278 275 265 259 259 258 251 248 256 274 283 287 288 306 318 297 289 279 246 226 218
188 79 176 297 0 45 59 72 107 343 26 42 334 282 263 247 251 247 237 243 243 240 261 265 267 269 262 261 269 275 277 277 279 278 282 285 279 282 282 268 249 240 232
238 203 152 56 55 69 72 43 41 209 24 275 264 331 282 246 248 265 253 230 230 226 235 247 254 266 273 276 282 288 285 284 289 289 281 275 274 270 263 258 250 256 256
233 242 235 246 153 128 64 55 39 32 287 299 243 290 312 311 316 258 252 254 247 249 248 248 252 260 269 278 279 273 278 286 289 286 291 300 292 276 247 240 241 252 252
246 248 240 245 240 208 258 346 30 323 319 104 227 284 297 298 303 302 264 258 262 265 264 256 256 251 258 262 262 266 274 267 280 282 289 279 293 285 277 257 249 239 235
258 252 252 242 249 231 225 242 239 249 289 285 256 294 329 298 280 281 279 276 275 266 269 273 276 274 264 261 265 265 272 263 269 274 265 268 274 274 280 279 260 249 242
255 254 256 248 245 249 238 235 249 251 266 278 273 302 334 333 303 297 275 269 271 275 275 277 273 272 274 276 273 270 270 266 269 272 271 271 270 268 262 263 262 247 245
250 257 259 259 253 244 249 243 238 244 251 279 287 296 297 303 313 318 290 261 260 265 262 272 273 267 269 270 269 269 273 270 260 259 259 262 256 258 261 256 253 245 238
246 257 255 259 257 242 241 239 238 239 247 267 277 283 305 307 294 303 306 279 280 278 271 275 276 269 255 262 262 258 259 259 260 259 258 258 259 253 259 263 255 248 242
244 247 263 259 251 238 236 239 239 239 244 261 278 285 293 292 292 289 298 308 258 280 252 284 288 270 266 262 261 251 252 249 245 254 255 256 256 254 255 260 265 267 259
242 257 276 258 244 234 235 238 238 236 237 250 268 279 280 281 288 288 300 311 321 276 264 268 285 277 293 302 289 257 244 242 245 247 251 256 264 265 264 264 263 262 262
244 249 277 256 232 232 234 237 241 239 240 250 264 278 282 274 280 280 305 302 269 288 289 279 265 288 298 357 346 259 233 239 243 245 255 261 265 268 270 267 267 265 262
247 245 257 251 239 237 237 239 243 243 243 247 256 265 275 274 276 279 290 281 283 305 310 321 247 327 344 327 345 335 238 241 246 258 259 273 283 279 276 269 271 266 261
247 252 259 264 249 241 239 237 241 241 242 249 254 260 266 269 276 283 249 258 256 289 313 321 294 291 305 303 330 354 356 244 249 258 277 286 284 286 279 283 288 261 262
248 251 260 258 262 243 242 239 240 244 244 250 251 259 263 265 265 271 257 261 271 272 276 289 286 283 286 301 317 332 330 252 265 255 268 276 284 282 285 289 295 289 307
244 248 254 256 256 237 245 243 243 245 246 246 253 251 256 258 263 268 262 270 274 277 276 277 279 279 281 290 302 306 304 297 291 285 281 283 285 290 292 292 300 297 291
247 249 243 249 238 239 240 243 244 248 249 249 251 253 255 256 255 261 268 267 266 267 264 274 279 283 289 297 304 303 300 291 286 285 287 288 289 289 292 294 296 293 292
244 247 241 238 240 241 243 248 249 243 247 250 254 249 255 262 251 264 265 251 262 269 269 276 277 287 297 300 301 296 296 294 288 292 295 296 299 303 302 298 294 292 289
252 245 236 235 241 244 241 244 250 242 240 242 249 257 257 258 258 260 258 251 248 259 266 269 273 277 282 286 288 291 296 291 286 297 303 306 298 297 298 297 294 293 291
254 249 245 237 239 244 249 251 251 248 240 240 243 250 250 252 257 257 249 241 248 253 261 264 264 266 270 275 277 279 285 283 284 293 305 307 301 300 300 298 295 291 285
287 275 256 242 240 239 241 245 251 253 252 248 251 245 245 249 255 255 250 245 252 256 257 255 258 266 275 285 285 281 282 283 279 283 295 303 305 307 308 306 301 298 292
295 285 273 245 251 246 243 244 247 248 248 244 246 250 239 244 252 254 253 247 250 254 256 255 257 262 271 277 282 281 276 276 278 279 283 298 304 303 308 310 306 302 298
285 285 289 286 285 275 278 262 259 262 249 249 245 239 243 243 246 250 249 248 253 257 257 255 257 261 269 280 286 285 283 279 280 284 287 287 298 297 303 311 304 302 300
281 281 285 285 292 287 289 280 287 279 257 250 247 250 251 243 244 247 244 242 248 250 249 249 258 264 268 274 282 284 283 281 275 279 287 292 301 296 296 298 307 304 295